Weather History for Benson, MN

Change the Weather History Date:

Monday, January 20, 2014

  Actual Average Record
Temperature  
Mean Temperature 6 °F -  
Max Temperature 28 °F 22 °F 45 °F (1964)
Min Temperature -16 °F 1 °F -27 °F (1970)
Degree Days  
Heating Degree Days 59    
Moisture  
Dew Point 4 °F    
Average Humidity 80    
Maximum Humidity 100    
Minimum Humidity 61    
Precipitation  
Precipitation 0.00 in - - ()
Sea Level Pressure  
Sea Level Pressure 30.11 in    
Wind  
Wind Speed 12 mph (NNE)    
Max Wind Speed 23 mph    
Max Gust Speed 30 mph    
Visibility 9 miles    
Events Snow    
Averages and records for this station are not official NWS values.
T = Trace of Precipitation, MM = Missing Value Source: NWS Daily Summary

Daily Weather History Graph

Daily Weather History Graph

Search for Another Location

Airport:

Trip Planner

Search our weather history database for the weather conditions in past years. The results will help you decide how hot, cold, wet, or windy it might be!

Date:

Astronomy

Jan. 20, 2014 Rise Set
Actual Time 7:54 AM CST 5:12 PM CST
Civil Twilight 7:22 AM CST 5:45 PM CST
Nautical Twilight 6:46 AM CST 6:21 PM CST
Astronomical Twilight 6:11 AM CST 6:56 PM CST
Moon 10:04 PM CST (1/20) 9:41 AM CST (1/20)
Length of Visible Light 10h 23m
Length of Day
9h 17m
Waning Gibbous, 82% of the Moon is Illuminated
Jan 20
Waning Gibbous
Jan 23
Last Quarter
Jan 30
New
Feb 6
First Quarter
Feb 14
Full

Hourly Weather History & Observations

Time (CST) Temp. Windchill Dew Point Humidity Pressure Visibility Wind Dir Wind Speed Gust Speed Precip Events Conditions
12:12 AM 28.4 °F 19.1 °F 24.8 °F 86% 29.74 in 10.0 mi NNW 10.4 mph - N/A   Overcast
12:33 AM 28.4 °F 19.7 °F 24.8 °F 86% 29.73 in 10.0 mi NW 9.2 mph - N/A   Overcast
12:52 AM 26.6 °F 17.5 °F 24.8 °F 93% 29.75 in 10.0 mi NW 9.2 mph - N/A   Overcast
1:12 AM 26.6 °F 17.5 °F 24.8 °F 93% 29.75 in 10.0 mi NNW 9.2 mph - N/A   Overcast
1:33 AM 26.6 °F 17.5 °F 23.0 °F 86% 29.76 in 10.0 mi NNW 9.2 mph - N/A   Scattered Clouds
1:52 AM 24.8 °F 17.9 °F 21.2 °F 86% 29.77 in 10.0 mi NNW 5.8 mph - N/A   Scattered Clouds
2:12 AM 23.0 °F 17.0 °F 21.2 °F 93% 29.77 in 10.0 mi NNW 4.6 mph - N/A   Scattered Clouds
2:33 AM 21.2 °F 12.6 °F 19.4 °F 93% 29.78 in 10.0 mi NNW 6.9 mph - N/A   Scattered Clouds
2:52 AM 21.2 °F 14.9 °F 21.2 °F 100% 29.79 in 10.0 mi North 4.6 mph - N/A   Mostly Cloudy
3:12 AM 24.8 °F 16.1 °F 21.2 °F 86% 29.80 in 10.0 mi North 8.1 mph - N/A   Overcast
3:33 AM 24.8 °F 11.5 °F 21.2 °F 86% 29.81 in 10.0 mi North 17.3 mph - N/A   Overcast
3:52 AM 24.8 °F 12.4 °F 21.2 °F 86% 29.82 in 10.0 mi North 15.0 mph 25.3 mph N/A   Overcast
4:12 AM 24.8 °F 12.9 °F 21.2 °F 86% 29.82 in 10.0 mi North 13.8 mph 19.6 mph N/A   Overcast
4:33 AM 23.0 °F 10.1 °F 19.4 °F 86% 29.82 in 10.0 mi North 15.0 mph - N/A   Overcast
4:52 AM 23.0 °F 12.4 °F 19.4 °F 86% 29.82 in 10.0 mi North 10.4 mph - N/A   Overcast
5:12 AM 21.2 °F 10.1 °F 19.4 °F 93% 29.83 in 10.0 mi North 10.4 mph - N/A   Overcast
5:33 AM 21.2 °F 10.9 °F 19.4 °F 93% 29.83 in 10.0 mi NNE 9.2 mph - N/A   Overcast
5:52 AM 21.2 °F 10.9 °F 17.6 °F 86% 29.84 in 10.0 mi NNE 9.2 mph - N/A   Overcast
6:12 AM 19.4 °F 8.6 °F 17.6 °F 93% 29.85 in 10.0 mi NNE 9.2 mph - N/A   Overcast
6:33 AM 19.4 °F 9.5 °F 17.6 °F 93% 29.86 in 10.0 mi NNE 8.1 mph - N/A Snow Light Snow
6:52 AM 19.4 °F 9.5 °F 17.6 °F 93% 29.86 in 10.0 mi NNE 8.1 mph - N/A Snow Light Snow
7:13 AM 19.4 °F 8.6 °F 15.8 °F 86% 29.87 in 10.0 mi NNE 9.2 mph - N/A Snow Light Snow
7:32 AM 19.4 °F 8.6 °F 15.8 °F 86% 29.88 in 7.0 mi NNE 9.2 mph - N/A Snow Light Snow
7:52 AM 19.4 °F 7.9 °F 15.8 °F 86% 29.89 in 7.0 mi North 10.4 mph - N/A Snow Light Snow
8:13 AM 19.4 °F 11.5 °F 15.8 °F 86% 29.89 in 10.0 mi NNE 5.8 mph - N/A Snow Light Snow
8:32 AM 19.4 °F 9.5 °F 15.8 °F 86% 29.91 in 10.0 mi NNE 8.1 mph - N/A   Overcast
8:52 AM 19.4 °F 7.2 °F 15.8 °F 86% 29.93 in 10.0 mi NNE 11.5 mph - N/A Snow Light Snow
9:13 AM 19.4 °F 6.6 °F 15.8 °F 86% 29.94 in 5.0 mi NE 12.7 mph 19.6 mph N/A Snow Light Snow
9:32 AM 17.6 °F 6.4 °F 12.2 °F 79% 29.97 in 7.0 mi ENE 9.2 mph - N/A Snow Light Snow
9:52 AM 15.8 °F 2.7 °F 10.4 °F 79% 29.99 in 10.0 mi NE 11.5 mph - N/A Snow Light Snow
10:13 AM 15.8 °F 2.1 °F 10.4 °F 79% 30.01 in 7.0 mi NE 12.7 mph - N/A Snow Light Snow
10:32 AM 15.8 °F 2.1 °F 10.4 °F 79% 30.01 in 2.5 mi ENE 12.7 mph - N/A Snow Light Snow
10:53 AM 15.8 °F 3.4 °F 10.4 °F 79% 30.02 in 1.2 mi ENE 10.4 mph - N/A Snow Light Snow
11:13 AM 15.8 °F 1.4 °F 10.4 °F 79% 30.05 in 3.0 mi NE 13.8 mph - N/A Snow Light Snow
11:32 AM 14.0 °F 0.5 °F 6.8 °F 73% 30.06 in 3.0 mi ENE 11.5 mph 19.6 mph N/A Snow Light Snow
11:53 AM 12.2 °F -2.5 °F 6.8 °F 79% 30.07 in 3.0 mi ENE 12.7 mph 18.4 mph N/A Snow Light Snow
12:13 PM 12.2 °F -4.8 °F 6.8 °F 79% 30.09 in 7.0 mi NE 17.3 mph 21.9 mph N/A Snow Light Snow
12:32 PM 10.4 °F -7.7 °F 3.2 °F 73% 30.10 in 7.0 mi NE 18.4 mph 23.0 mph N/A Snow Light Snow
12:53 PM 10.4 °F -6.6 °F 3.2 °F 73% 30.10 in 4.0 mi NE 16.1 mph 21.9 mph N/A Snow Light Snow
1:13 PM 8.6 °F -9.5 °F 3.2 °F 79% 30.12 in 4.0 mi NE 17.3 mph 24.2 mph N/A Snow Light Snow
1:32 PM 8.6 °F -10.5 °F 1.4 °F 73% 30.15 in 7.0 mi NE 19.6 mph 25.3 mph N/A Snow Light Snow
1:53 PM 8.6 °F -8.9 °F -0.4 °F 67% 30.16 in 10.0 mi NNE 16.1 mph 21.9 mph N/A   Overcast
2:12 PM 6.8 °F -13.4 °F -0.4 °F 72% 30.18 in 10.0 mi NNE 20.7 mph 26.5 mph N/A   Overcast
2:33 PM 6.8 °F -11.8 °F -2.2 °F 67% 30.20 in 10.0 mi NNE 17.3 mph 24.2 mph N/A Snow Light Snow
2:53 PM 6.8 °F -12.4 °F -2.2 °F 67% 30.22 in 10.0 mi NNE 18.4 mph 26.5 mph N/A   Overcast
3:12 PM 6.8 °F -14.3 °F -4.0 °F 61% 30.24 in 10.0 mi NNE 23.0 mph 29.9 mph N/A   Overcast
3:33 PM 6.8 °F -11.8 °F -4.0 °F 61% 30.27 in 10.0 mi NNE 17.3 mph 25.3 mph N/A   Mostly Cloudy
3:53 PM 6.8 °F -12.9 °F -4.0 °F 61% 30.29 in 10.0 mi NNE 19.6 mph 26.5 mph N/A   Overcast
4:12 PM 3.2 °F -16.5 °F -2.2 °F 78% 30.31 in 10.0 mi North 17.3 mph 26.5 mph N/A   Overcast
4:33 PM 1.4 °F -21.0 °F -4.0 °F 78% 30.32 in 7.0 mi North 21.9 mph 27.6 mph N/A   Overcast
4:53 PM -0.4 °F -21.7 °F -7.6 °F 72% 30.33 in 10.0 mi North 18.4 mph 26.5 mph N/A   Scattered Clouds
5:12 PM -0.4 °F -20.5 °F -7.6 °F 72% 30.34 in 10.0 mi North 16.1 mph 24.2 mph N/A   Clear
5:33 PM -2.2 °F -24.1 °F -9.4 °F 71% 30.37 in 10.0 mi North 18.4 mph 26.5 mph N/A   Clear
5:53 PM -4.0 °F -27.6 °F -9.4 °F 78% 30.39 in 10.0 mi North 20.7 mph 27.6 mph N/A   Clear
6:12 PM -5.8 °F -28.2 °F -11.2 °F 77% 30.40 in 10.0 mi North 17.3 mph 24.2 mph N/A   Clear
6:33 PM -7.6 °F -29.1 °F -11.2 °F 84% 30.42 in 10.0 mi North 15.0 mph - N/A   Clear
6:53 PM -7.6 °F -32.3 °F -13.0 °F 77% 30.43 in 10.0 mi North 20.7 mph 26.5 mph N/A   Scattered Clouds
7:12 PM -9.4 °F -31.4 °F -14.8 °F 77% 30.44 in 10.0 mi North 15.0 mph 21.9 mph N/A   Scattered Clouds
7:33 PM -9.4 °F -32.1 °F -16.6 °F 71% 30.46 in 10.0 mi North 16.1 mph - N/A   Clear
7:53 PM -11.2 °F -33.7 °F -16.6 °F 77% 30.47 in 10.0 mi North 15.0 mph - N/A   Clear
8:12 PM -11.2 °F -34.4 °F -16.6 °F 77% 30.48 in 10.0 mi North 16.1 mph - N/A   Clear
8:33 PM -13.0 °F -32.4 °F -18.4 °F 77% 30.49 in 10.0 mi North 10.4 mph 18.4 mph N/A   Clear
8:53 PM -13.0 °F -36.8 °F -18.4 °F 77% 30.49 in 10.0 mi North 16.1 mph - N/A   Clear
9:12 PM -14.8 °F -37.5 °F -20.2 °F 77% 30.48 in 10.0 mi North 13.8 mph 20.7 mph N/A   Clear
9:33 PM -14.8 °F -38.3 °F -20.2 °F 77% 30.49 in 10.0 mi North 15.0 mph - N/A   Clear
9:52 PM -14.8 °F -37.5 °F -20.2 °F 77% 30.50 in 10.0 mi North 13.8 mph - N/A   Clear
10:13 PM -14.8 °F -36.6 °F -20.2 °F 77% 30.50 in 10.0 mi North 12.7 mph - N/A   Clear
10:33 PM -16.6 °F -41.4 °F -20.2 °F 84% 30.50 in 10.0 mi North 16.1 mph - N/A   Clear
10:52 PM -16.6 °F -35.7 °F -22.0 °F 76% 30.51 in 10.0 mi North 9.2 mph - N/A   Clear
11:13 PM -16.6 °F -36.8 °F -22.0 °F 76% 30.51 in 10.0 mi North 10.4 mph - N/A   Clear
11:33 PM -16.6 °F -37.9 °F -23.8 °F 70% 30.51 in 10.0 mi North 11.5 mph - N/A   Clear
11:52 PM -16.6 °F -37.9 °F -23.8 °F 70% 30.51 in 10.0 mi North 11.5 mph - N/A   Clear